EW7001 Weather Reports


Display with metric or nautical units.
time (UTC)temp
F
wind
direction
speed
MPH
gust
MPH
rain 1hr
in
rain 24hr
in
rain mn
in
humidity
%
barometer
mb
20260507213031 57 277 9.0 20.0 0.00 0.05 0.03 60 1007.6
20260507213028 57 274 9.0 20.0 0.00 0.05 0.03 60 1007.6
20260507211527 56 333 7.0 17.0 0.01 0.05 0.03 62 1007.7
20260507210030 55 286 10.0 21.0 0.02 0.05 0.03 63 1007.8
20260507204522 55 276 13.0 22.0 0.02 0.05 0.03 63 1007.7
20260507203020 57 309 9.0 19.0 0.03 0.05 0.03 59 1007.4
20260507201519 56 262 12.0 18.0 0.02 0.04 0.02 63 1007.5
20260507200010 55 288 11.0 19.0 0.01 0.03 0.01 65 1007.6
20260507194503 53 281 9.0 16.0 0.01 0.03 0.01 70 1008.0
20260507193004 53 277 7.0 16.0 0.00 0.02 0.00 72 1008.0
20260507191559 54 264 8.0 20.0 0.00 0.02 0.00 70 1008.0
20260507190057 53 302 7.0 19.0 0.00 0.02 0.00 73 1008.2
20260507184553 53 298 11.0 20.0 0.00 0.02 0.00 75 1008.3
20260507183047 51 253 9.0 17.0 0.00 0.02 0.00 71 1008.5
20260507181544 52 264 10.0 19.0 0.00 0.02 0.00 67 1008.4
20260507180046 52 279 10.0 16.0 0.00 0.02 0.00 70 1008.5
20260507174535 52 254 9.0 16.0 0.00 0.02 0.00 70 1008.3
20260507173029 54 249 7.0 18.0 0.00 0.02 0.00 61 1008.3
20260507171619 54 307 6.0 13.0 0.00 0.02 0.00 59 1008.1
20260507170014 54 293 6.0 12.0 0.00 0.02 0.00 58 1008.1
20260507164544 54 283 7.0 13.0 0.00 0.03 0.02 59 1008.1
20260507163042 53 302 5.0 11.0 0.00 0.03 0.02 67 1008.3
20260507161539 52 305 5.0 11.0 0.00 0.03 0.02 63 1008.3
20260507160039 52 314 3.0 6.0 0.00 0.03 0.02 62 1008.4
20260507154533 54 348 4.0 8.0 0.00 0.04 0.02 51 1008.6
20260507153035 54 323 3.0 10.0 0.01 0.04 0.02 47 1008.2
20260507151529 54 348 4.0 8.0 0.01 0.04 0.02 46 1008.2
20260507150029 54 314 4.0 9.0 0.01 0.04 0.02 43 1008.3
20260507144528 55 320 4.0 11.0 0.01 0.04 0.02 38 1008.3
20260507143027 55 331 5.0 11.0 0.00 0.03 0.01 37 1008.5
20260507141520 54 314 2.0 7.0 0.00 0.03 0.01 35 1008.5
20260507140026 54 306 2.0 7.0 0.00 0.03 0.01 35 1008.7
20260507134520 54 296 3.0 7.0 0.00 0.03 0.01 36 1008.7
20260507133021 54 281 3.0 6.0 0.00 0.03 0.01 36 1008.5
20260507131515 53 254 2.0 7.0 0.00 0.03 0.01 36 1008.4
20260507130015 51 269 3.0 5.0 0.00 0.03 0.01 39 1008.4
20260507124516 50 314 1.0 3.0 0.00 0.03 0.01 40 1008.3
20260507123021 50 286 3.0 6.0 0.00 0.03 0.01 39 1008.4
20260507121511 48 277 2.0 5.0 0.00 0.03 0.01 42 1008.3
20260507120010 47 284 1.0 5.0 0.00 0.03 0.01 41 1008.2
20260507114509 46 234 4.0 8.0 0.00 0.03 0.01 42 1008.2
20260507113007 45 283 0.0 4.0 0.00 0.03 0.01 44 1008.2
20260507111503 44 218 3.0 5.0 0.00 0.03 0.01 45 1008.4
20260507110005 44 223 3.0 7.0 0.00 0.03 0.01 44 1008.4
20260507104559 44 223 4.0 7.0 0.00 0.03 0.01 43 1008.5
20260507103058 45 213 5.0 8.0 0.00 0.03 0.01 41 1008.7
20260507101606 45 245 2.0 8.0 0.00 0.03 0.01 41 1008.7
20260507100058 44 241 1.0 5.0 0.00 0.03 0.01 42 1008.7
20260507094600 44 236 3.0 6.0 0.00 0.03 0.01 40 1008.7
20260507093051 48 241 3.0 7.0 0.00 0.03 0.01 37 1008.9
20260507091600 48 281 4.0 8.0 0.00 0.03 0.01 36 1008.8
20260507090109 48 246 3.0 8.0 0.00 0.03 0.01 36 1008.9
20260507084549 48 264 3.0 8.0 0.00 0.03 0.01 36 1009.0
20260507083048 47 257 6.0 10.0 0.00 0.03 0.01 37 1008.9
20260507081556 47 243 6.0 9.0 0.00 0.03 0.01 36 1008.9
20260507081554 47 229 6.0 9.0 0.00 0.03 0.01 36 1008.9
20260507080043 48 260 8.0 13.0 0.00 0.03 0.01 34 1009.2
20260507074559 49 256 6.0 9.0 0.00 0.03 0.01 34 1009.7
20260507073011 48 237 6.0 12.0 0.00 0.03 0.01 34 1009.7
20260507071509 47 246 6.0 12.0 0.00 0.03 0.01 34 1009.9
20260507070048 47 243 4.0 9.0 0.00 0.03 0.01 33 1010.5
20260507064536 47 251 8.0 12.0 0.00 0.03 0.01 33 1010.3
20260507063006 46 204 6.0 14.0 0.00 0.03 0.01 34 1010.5
20260507061506 39 263 3.0 6.0 0.00 0.03 0.01 44 1010.7
20260507060032 37 220 4.0 6.0 0.00 0.03 0.01 45 1010.8
20260507054530 38 220 4.0 6.0 0.00 0.03 0.01 42 1010.9
20260507053059 39 195 6.0 8.0 0.00 0.03 0.01 42 1011.1
20260507051557 38 221 3.0 6.0 0.00 0.03 0.01 43 1011.2
20260507050032 37 201 5.0 7.0 0.00 0.03 0.01 45 1011.2
20260507044540 37 216 6.0 8.0 0.00 0.03 0.01 45 1011.4
20260507043053 37 200 5.0 7.0 0.00 0.03 0.01 45 1011.5
20260507041551 37 201 4.0 6.0 0.00 0.03 0.01 45 1011.7
20260507040050 38 203 5.0 7.0 0.00 0.03 0.01 44 1011.9
20260507034549 37 195 3.0 5.0 0.00 0.03 0.01 45 1011.9
20260507033045 34 208 2.0 4.0 0.00 0.03 0.01 51 1011.9
20260507031544 33 63 1.0 3.0 0.00 0.03 0.01 51 1011.9
20260507030040 34 124 1.0 2.0 0.00 0.03 0.01 48 1012.0
20260507024534 37 76 1.0 3.0 0.00 0.03 0.01 43 1012.0
20260507023027 40 135 1.0 3.0 0.00 0.03 0.01 36 1011.9
20260507021526 47 206 1.0 3.0 0.00 0.03 0.01 29 1012.0
20260507020023 50 310 1.0 3.0 0.00 0.03 0.01 28 1012.1
20260507014524 51 342 1.0 5.0 0.00 0.04 0.01 27 1012.3
20260507013020 52 348 3.0 8.0 0.00 0.04 0.01 25 1012.5
20260507011526 53 279 3.0 6.0 0.00 0.04 0.01 25 1012.3
20260507010120 53 276 5.0 8.0 0.00 0.04 0.01 24 1012.6
20260507004514 54 315 5.0 10.0 0.00 0.12 0.01 23 1012.5
20260507003012 54 269 4.0 11.0 0.00 0.12 0.01 22 1012.8
20260507001514 54 255 6.0 9.0 0.00 0.12 0.01 23 1012.9
20260507000042 54 296 4.0 10.0 0.00 0.12 0.01 22 1013.1
20260506234537 54 274 5.0 11.0 0.00 0.42 0.01 23 1013.3
20260506233033 53 319 4.0 8.0 0.00 0.42 0.01 24 1013.3
20260506231533 54 271 5.0 16.0 0.00 0.42 0.01 23 1013.4
20260506230029 53 251 6.0 11.0 0.00 0.42 0.01 22 1013.6
20260506224525 53 276 6.0 14.0 0.00 0.97 0.01 24 1013.9
20260506223018 53 264 4.0 12.0 0.00 0.97 0.01 22 1014.5
20260506221511 53 271 4.0 10.0 0.00 0.97 0.01 23 1014.9
20260506220005 52 243 7.0 12.0 0.01 0.97 0.01 23 1015.2
20260506214502 51 328 5.0 15.0 0.01 1.53 0.01 24 1015.2